[[{"header":{"parameterUnit":"m.s-1","parameterCategory":1,"la1":30.2991,"la2":30.254,"lo1":-89.0895,"lo2":-89.0444,"dy":0.0017,"dx":0.0017,"nx":28,"ny":28,"refTime":"2024-06-07T09:00:00:Z","depth":0,"parameterNumber":2,"parameterNumberName":"U-component_of_WINDS"},"data":[0,0,0,0,0,0,0,0,0,0,0,0,0,0,0,0,0,0,0,0,0,0,0,0,0,0,0,0,0,0,0,0,0,0,0,0,0,0,0,0,0,0,0,0,0,0,0,0,0,0,0,0,0,0,0,0,0,0,1.7505,1.7507,0,1.7691,1.7694,1.7696,1.7726,1.7724,1.7723,1.7721,1.7916,1.7923,1.7929,0,0,0,0,0,0,0,0,0,0,0,0,0,1.7176,1.7182,1.7504,1.7507,1.7509,1.7691,1.7694,1.7696,1.7726,1.7724,1.7722,1.772,1.7914,1.7922,1.793,0,0,0,0,0,0,0,0,0,0,0,0,0,1.7337,1.7184,1.7504,1.7546,1.7552,1.7691,1.7694,1.7697,1.7727,1.7724,1.7722,1.7719,1.7911,1.7921,1.7931,1.8042,0,0,1.7962,1.7966,0,0,0,0,0,0,0,0,1.7328,1.7349,1.7538,1.7543,1.755,1.7683,1.765,1.7813,1.7727,1.766,1.7721,1.7718,1.7841,1.7856,1.7897,1.8052,1.806,1.7963,1.7969,1.7973,1.7976,0,0,0,0,0,0,0,1.7316,1.7341,1.7579,1.754,1.7548,1.7556,1.7576,1.7681,1.7762,1.7666,1.7669,1.769,1.7844,1.7887,1.7902,1.8063,1.7962,1.7971,1.7978,1.7981,1.8317,1.832,0,0,0,0,0,0,1.7297,1.7331,1.7573,1.7584,1.743,1.7564,1.7587,1.7643,1.7761,1.7777,1.7692,1.7691,1.7871,1.789,1.7909,1.8046,1.7973,1.7982,1.7988,1.8314,1.8318,1.8321,0,0,0,0,0,0,1.729,1.7319,1.7565,1.7459,1.7491,1.7572,1.7635,1.7648,1.7691,1.7781,1.7796,1.7721,1.787,1.7895,1.8008,1.8053,1.7987,1.7996,1.8311,1.8315,1.8319,1.8321,0,0,0,0,0,0,1.7281,1.7316,1.7358,1.7459,1.7496,1.7661,1.7638,1.7653,1.7708,1.7708,1.7812,1.7827,1.787,1.7993,1.8018,1.8066,1.8004,1.8307,1.8313,1.8318,1.8317,1.8325,1.8331,0,0,0,0,0,1.7269,1.7352,1.736,1.7389,1.7551,1.7663,1.7684,1.7731,1.7712,1.7755,1.7813,1.7824,1.8044,1.8005,1.8033,1.8084,1.8305,1.8311,1.8318,1.8314,1.8323,1.8331,0,0,0,0,0,0,1.7256,1.7366,1.7376,1.7495,1.7569,1.7668,1.7724,1.7739,1.7822,1.7819,1.7874,1.7898,1.8008,1.8058,1.8012,1.8198,1.8173,1.8185,1.8161,1.817,1.8177,1.8162,1.8012,0,0,0,0,0,1.7266,1.7348,1.744,1.7536,1.7573,1.7642,1.7693,1.7722,1.7802,1.7834,1.79,1.7978,1.8064,1.812,1.8205,1.8325,1.8348,1.8375,1.8381,1.8387,1.8396,1.8462,1.8475,1.8342,1.8342,1.8342,0,0,1.729,1.736,1.7408,1.7535,1.7596,1.7679,1.7668,1.7757,1.782,1.7848,1.7958,1.801,1.81,1.8217,1.8272,1.8262,1.8438,1.8395,1.8398,1.8406,1.847,1.8483,1.8494,1.8346,1.8346,1.8345,0,0,1.7374,1.7436,1.7522,1.7583,1.7675,1.7721,1.7741,1.7838,1.7872,1.7984,1.8007,1.8082,1.8231,1.8294,1.8346,1.8454,1.8467,1.848,1.8516,1.858,1.859,1.86,1.8637,1.865,1.849,1.849,1.849,0,1.7392,1.7517,1.7564,1.7652,1.7707,1.7735,1.7822,1.788,1.7996,1.8033,1.802,1.8206,1.827,1.8401,1.8427,1.8468,1.8493,1.8468,1.8585,1.8595,1.8604,1.864,1.8654,1.8491,1.8491,1.8491,1.849,0,1.7533,1.762,1.7678,1.7787,1.7849,1.7936,1.7997,1.8055,1.8079,1.8126,1.8239,1.8316,1.8416,1.845,1.8475,1.8585,1.8576,1.8573,1.8549,1.8617,1.8652,1.8666,1.8492,1.8492,1.8491,1.8491,0,0,1.7614,1.7747,1.7768,1.7817,1.7921,1.7989,1.8078,1.8175,1.8222,1.8301,1.8376,1.8501,1.8499,1.8558,1.8591,1.8647,1.8725,1.8637,1.864,1.865,1.885,1.8849,1.8865,1.8735,1.8738,1.874,1.8841,0,1.7709,1.7866,1.7911,1.8044,1.8124,1.8152,1.823,1.8302,1.8348,1.8424,1.8476,1.8563,1.8554,1.8589,1.8646,1.8703,1.8766,1.8697,1.8806,1.8809,1.878,1.8883,1.8884,1.8975,1.8856,1.8858,1.886,0,1.7841,1.792,1.8061,1.8153,1.8188,1.8257,1.8348,1.8421,1.8503,1.8533,1.8598,1.8626,1.8719,1.8691,1.8821,1.8773,1.882,1.8855,1.886,1.8871,1.8837,1.8895,1.9006,1.9019,1.8882,1.888,1.8878,0,1.7883,1.8026,1.8128,1.817,1.8281,1.8328,1.8376,1.8457,1.8512,1.8593,1.8629,1.872,1.877,1.884,1.8892,1.8867,1.9017,1.8993,1.9044,1.9043,1.9073,1.907,1.9191,1.9106,1.9106,1.9106,1.9106,0,1.7984,1.8068,1.8148,1.8211,1.8306,1.8358,1.8451,1.8501,1.8572,1.8645,1.8677,1.8745,1.881,1.8887,1.8928,1.9028,1.9051,1.9078,1.9088,1.9074,1.9071,1.9105,1.9099,1.911,1.9109,1.9108,1.9108,0,1.8047,1.8104,1.8216,1.8312,1.8338,1.8404,1.8486,1.8548,1.8596,1.8688,1.8713,1.8788,1.888,1.8938,1.9057,1.9084,1.9194,1.9203,1.9165,1.9169,1.9216,1.921,1.9362,1.9384,1.9286,1.9287,1.9287,0,1.8106,1.8171,1.8273,1.8324,1.8372,1.8454,1.851,1.8564,1.8621,1.872,1.877,1.8864,1.8941,1.9087,1.9153,1.9243,1.9253,1.93,1.9267,1.9251,1.9252,1.9247,1.9253,1.9305,1.9306,1.9307,1.9307,0,1.8205,1.823,1.8309,1.8397,1.8463,1.8536,1.8609,1.8649,1.8715,1.8778,1.8872,1.8932,1.9051,1.9144,1.924,1.9291,1.931,1.9317,1.9334,1.932,1.9294,1.9307,1.9178,1.9313,1.9313,1.9312,1.9312,1.9312,1.8267,1.8326,1.8406,1.8493,1.8553,1.862,1.8683,1.8738,1.8817,1.8917,1.8945,1.9043,1.9124,1.9254,1.9307,1.9385,1.9379,1.9403,1.9409,1.9413,1.9413,1.9283,1.9403,1.9403,1.9403,1.9403,1.9403,0,1.8366,1.8419,1.8498,1.8598,1.8667,1.8678,1.8759,1.8816,1.8901,1.8975,1.905,1.9157,1.9247,1.932,1.9413,1.9461,1.9472,1.9483,1.9479,1.949,1.9414,1.9389,1.9472,1.9472,1.9472,1.9472,1.9472,1.9472,1.8425,1.8524,1.8559,1.8689,1.8742,1.8837,1.8882,1.8944,1.9003,1.9121,1.9196,1.9242,1.9315,1.9413,1.9496,1.9516,1.9548,1.9557,1.9577,1.9504,1.9496,1.9489,1.9466,1.9564,1.9564,1.9648,1.9648,1.9649]},{"header":{"parameterUnit":"m.s-1","parameterCategory":1,"la1":30.2991,"la2":30.254,"lo1":-89.0895,"lo2":-89.0444,"dy":0.0017,"dx":0.0017,"nx":28,"ny":28,"refTime":"2024-06-07T09:00:00:Z","depth":0,"parameterNumber":3,"parameterNumberName":"V-component_of_WINDS"},"data":[0,0,0,0,0,0,0,0,0,0,0,0,0,0,0,0,0,0,0,0,0,0,0,0,0,0,0,0,0,0,0,0,0,0,0,0,0,0,0,0,0,0,0,0,0,0,0,0,0,0,0,0,0,0,0,0,0,0,2.7133,2.7133,0,2.7191,2.7192,2.7192,2.7115,2.7112,2.7109,2.7107,2.7165,2.7169,2.7173,0,0,0,0,0,0,0,0,0,0,0,0,0,2.695,2.6954,2.7133,2.7134,2.7134,2.7191,2.7192,2.7193,2.7115,2.7112,2.7108,2.7105,2.7163,2.7168,2.7173,0,0,0,0,0,0,0,0,0,0,0,0,0,2.7021,2.6955,2.7133,2.7103,2.71,2.7191,2.7192,2.7193,2.7116,2.7112,2.7108,2.7104,2.7162,2.7168,2.7174,2.7296,0,0,2.7193,2.7196,0,0,0,0,0,0,0,0,2.7017,2.7028,2.7106,2.7105,2.7103,2.7141,2.7149,2.7227,2.7117,2.711,2.7106,2.7102,2.716,2.7166,2.7186,2.7299,2.7301,2.7193,2.7197,2.72,2.7202,0,0,0,0,0,0,0,2.7012,2.7025,2.7156,2.7107,2.7105,2.7085,2.709,2.7163,2.7158,2.711,2.7105,2.7113,2.7158,2.7181,2.7187,2.7302,2.7193,2.7199,2.7203,2.7205,2.7513,2.7517,0,0,0,0,0,0,2.7011,2.7021,2.7154,2.7157,2.7049,2.7091,2.7097,2.7133,2.7157,2.7156,2.7116,2.7109,2.7172,2.718,2.7189,2.733,2.72,2.7206,2.7209,2.7508,2.7514,2.7519,0,0,0,0,0,0,2.7008,2.7024,2.7152,2.7088,2.7103,2.7099,2.714,2.7137,2.7159,2.7161,2.716,2.714,2.7169,2.718,2.7269,2.7331,2.7208,2.7214,2.7503,2.751,2.7516,2.7616,0,0,0,0,0,0,2.7003,2.7023,2.7071,2.709,2.7106,2.7232,2.7144,2.7141,2.717,2.7161,2.7183,2.7183,2.7167,2.726,2.7275,2.7338,2.7219,2.7498,2.7506,2.7514,2.7607,2.7625,2.7641,0,0,0,0,0,2.6997,2.7097,2.7074,2.709,2.7166,2.7236,2.7246,2.7225,2.7175,2.7222,2.7223,2.7182,2.7322,2.727,2.7286,2.7351,2.7493,2.7504,2.7513,2.76,2.7622,2.764,0,0,0,0,0,0,2.7087,2.7099,2.7073,2.7184,2.7209,2.7223,2.7282,2.725,2.729,2.728,2.7252,2.7257,2.7352,2.7361,2.7302,2.7468,2.7399,2.7413,2.7459,2.748,2.7497,2.7492,2.7224,0,0,0,0,0,2.7119,2.7176,2.7184,2.728,2.7294,2.7286,2.7316,2.7297,2.7323,2.7333,2.7341,2.7367,2.7415,2.7449,2.7495,2.7608,2.761,2.7661,2.7678,2.7691,2.7703,2.776,2.7781,2.7551,2.7551,2.7551,0,0,2.7187,2.7201,2.7239,2.7298,2.7316,2.7374,2.7296,2.7361,2.7403,2.7343,2.7426,2.7433,2.7459,2.756,2.7605,2.757,2.7767,2.7704,2.7715,2.7719,2.7772,2.7794,2.7813,2.7558,2.7557,2.7556,0,0,2.734,2.7358,2.7438,2.7457,2.7484,2.7477,2.7497,2.7515,2.7516,2.76,2.7555,2.7604,2.769,2.771,2.7731,2.7887,2.785,2.7903,2.799,2.8046,2.8064,2.808,2.8132,2.8152,2.7915,2.7915,2.7915,0,2.7421,2.7507,2.7483,2.755,2.7576,2.7524,2.7603,2.7623,2.7664,2.7682,2.7643,2.7748,2.7762,2.7865,2.7902,2.7923,2.7941,2.79,2.8064,2.8079,2.8094,2.8143,2.8164,2.7921,2.792,2.792,2.7919,0,2.7603,2.7663,2.7724,2.7764,2.7797,2.787,2.7856,2.7891,2.7869,2.7866,2.795,2.7965,2.8011,2.8034,2.8014,2.8133,2.811,2.8068,2.7998,2.8122,2.8168,2.8187,2.793,2.7927,2.7926,2.7924,0,0,2.7815,2.7839,2.7861,2.7877,2.7902,2.7947,2.8017,2.8061,2.8091,2.8121,2.8176,2.8249,2.8209,2.8233,2.8214,2.8263,2.8382,2.8214,2.8214,2.8242,2.851,2.854,2.8563,2.8358,2.8361,2.8364,2.8506,0,2.7965,2.8085,2.8064,2.818,2.8233,2.8183,2.8243,2.8263,2.8262,2.8305,2.8303,2.8353,2.8298,2.8312,2.8358,2.8358,2.8434,2.8347,2.8407,2.8409,2.84,2.8587,2.862,2.8754,2.8525,2.8528,2.853,0,2.8157,2.8192,2.8313,2.8326,2.8347,2.8402,2.8439,2.8482,2.8503,2.8498,2.8523,2.8494,2.8561,2.849,2.858,2.8521,2.8544,2.8547,2.8551,2.8555,2.8476,2.8593,2.8796,2.8816,2.8559,2.8557,2.8554,0,2.8295,2.8373,2.8454,2.847,2.8488,2.8527,2.8536,2.8553,2.858,2.8612,2.8629,2.8669,2.869,2.8721,2.8702,2.8654,2.8794,2.8723,2.879,2.879,2.882,2.8819,2.9028,2.8839,2.8839,2.8839,2.8838,0,2.8464,2.8539,2.8516,2.8566,2.8648,2.8622,2.8703,2.8706,2.8721,2.8769,2.8729,2.8774,2.8748,2.8791,2.8778,2.8852,2.8863,2.8859,2.8854,2.8861,2.8861,2.8875,2.8864,2.8844,2.8843,2.8842,2.8841,0,2.8633,2.8621,2.8705,2.8715,2.8718,2.8778,2.8785,2.883,2.8824,2.8885,2.8898,2.8889,2.8937,2.8922,2.8975,2.8965,2.9058,2.9043,2.9051,2.9046,2.9113,2.9106,2.9337,2.9364,2.916,2.9162,2.9163,0,2.874,2.8796,2.8811,2.884,2.8852,2.89,2.8926,2.8902,2.8931,2.8957,2.8999,2.9044,2.9078,2.9157,2.9154,2.9193,2.9176,2.9254,2.9182,2.9187,2.9174,2.917,2.9174,2.9268,2.9271,2.9273,2.9274,0,2.8931,2.8921,2.8961,2.8999,2.9031,2.906,2.9084,2.911,2.9087,2.9122,2.917,2.9197,2.9249,2.9292,2.9327,2.9335,2.93,2.9297,2.9314,2.9322,2.9323,2.932,2.9088,2.9292,2.929,2.9289,2.9288,2.9287,2.907,2.9116,2.9133,2.9178,2.9193,2.9216,2.9258,2.9257,2.9297,2.9337,2.932,2.9375,2.9391,2.9434,2.9447,2.9488,2.9458,2.9484,2.9489,2.9496,2.9503,2.9318,2.9495,2.9494,2.9494,2.9493,2.9493,0,2.9257,2.9264,2.9306,2.934,2.9375,2.9339,2.9363,2.9394,2.9443,2.9462,2.9495,2.9549,2.9591,2.959,2.9628,2.9662,2.9646,2.9672,2.9668,2.967,2.9529,2.9509,2.9683,2.9683,2.9683,2.9683,2.9683,2.9683,2.9357,2.9432,2.9424,2.9505,2.9512,2.9565,2.9582,2.9602,2.9616,2.9678,2.9712,2.9711,2.9721,2.9759,2.9794,2.9793,2.9808,2.9839,2.9832,2.97,2.9681,2.9662,2.9644,2.9843,2.9843,2.9969,2.997,2.9971]}]]